This demonstration page uses our WeatherBlox Daily Observations layout. Learn more.

Left ArrowRight Arrow

Hourly Observations for December 27, 2020

Temp ( °F °C ) Dew Point ( °F °C ) Humidity (%) Winds ( mph kmh ) Pressure ( in mb ) Visibility ( mi km ) Precip ( " mm )
12:56 am 00:56 Clear 29 -1.7 26 -3.3 89 89 WSW 5 7 29.70 1006 10 16 0.00 0.00
1:56 am 01:56 Clear 32 0 29 -1.7 88 88 NW 9 15 29.70 1006 10 16 0.00 0.00
2:56 am 02:56 Clear 30 -1.1 26 -3.3 85 85 WNW 8 13 29.70 1006 10 16 0.00 0.00
3:56 am 03:56 Mostly Clear 31 -0.6 26 -3.3 82 82 WNW 7 11 29.70 1006 10 16 0.00 0.00
4:56 am 04:56 Partly Cloudy 31 -0.6 27 -2.8 85 85 WNW 6 9 29.69 1006 10 16 0.00 0.00
5:56 am 05:56 Mostly Clear 32 0 26 -3.3 79 79 NW 6 9 29.71 1006 10 16 0.00 0.00
6:56 am 06:56 Clear 31 -0.6 27 -2.8 85 85 N 12 19 29.77 1008 10 16 0.00 0.00
7:56 am 07:56 Clear 31 -0.6 26 -3.3 82 82 NNW 13 20 29.82 1010 10 16 0.00 0.00
8:56 am 08:56 Mostly Cloudy 33 0.6 27 -2.8 78 78 N 16 26 29.84 1011 10 16 0.00 0.00
9:56 am 09:56 Mostly Cloudy 36 2.2 32 0 86 86 NNW 13 20 29.89 1012 10 16 0.00 0.00
10:29 am 10:29 Cloudy with Light Rain 39 4 34 1 81 81 NNW 20 31 29.92 1013 10 16 0.00 0.00
10:39 am 10:39 Mostly Cloudy with Light Rain 37 3 34 1 87 87 NNW 17 28 29.93 1014 10 16 0.00 0.00
10:56 am 10:56 Cloudy with Light Rain 38 3.3 35 1.7 89 89 NNW 18 30 29.93 1013 10 16 0.00 0.00
11:33 am 11:33 Partly Cloudy 39 4 34 1 81 81 NNW 18 30 29.95 1014 10 16 0.00 0.00
11:56 am 11:56 Mostly Sunny 42 5.6 33 0.6 71 71 NNW 22 35 29.92 1013 10 16 0.00 0.00
12:10 pm 12:10 Mostly Cloudy 43 6 32 0 66 66 NNW 22 35 29.93 1013 10 16 0.00 0.00
12:41 pm 12:41 Partly Cloudy 43 6 30 -1 61 61 NNW 24 39 29.93 1013 10 16 0.00 0.00
12:56 pm 12:56 Mostly Sunny 44 6.7 30 -1.1 58 58 NNW 28 44 29.93 1013 10 16 0.00 0.00
1:56 pm 13:56 Partly Cloudy 43 6.1 29 -1.7 58 58 NNW 22 35 29.94 1014 10 16 0.00 0.00
2:56 pm 14:56 Partly Cloudy 43 6.1 29 -1.7 58 58 NNW 21 33 29.98 1015 10 16 0.00 0.00
3:56 pm 15:56 Mostly Cloudy 41 5 29 -1.7 62 62 NNW 21 33 30.01 1016 10 16 0.00 0.00
4:56 pm 16:56 Sunny 37 2.8 27 -2.8 67 67 N 15 24 30.04 1017 10 16 0.00 0.00
5:56 pm 17:56 Clear 34 1.1 25 -3.9 70 70 NNW 14 22 30.09 1019 10 16 0.00 0.00
6:56 pm 18:56 Clear 31 -0.6 25 -3.9 79 79 NNW 7 11 30.14 1021 10 16 0.00 0.00
7:56 pm 19:56 Clear 29 -1.7 24 -4.4 82 82 NNW 7 11 30.19 1022 10 16 0.00 0.00
8:56 pm 20:56 Clear 27 -2.8 22 -5.6 81 81 WNW 5 7 30.23 1024 10 16 0.00 0.00
9:56 pm 21:56 Mostly Cloudy 27 -2.8 22 -5.6 81 81 NW 5 7 30.23 1024 10 16 0.00 0.00
10:56 pm 22:56 Cloudy 25 -3.9 22 -5.6 88 88 N 6 9 30.25 1024 10 16 0.00 0.00
11:56 pm 23:56 Cloudy 26 -3.3 22 -5.6 84 84 NNW 5 7 30.27 1025 10 16 0.00 0.00

Powered by AerisWeather